Temperature
22 21 21 20 20 20 20 20 20 20 20 20 20 20 20 20 20 20 19 19 19 19 19 19 19 19 19 19 19 19 19 19 19 19 19 18 18 18 18 17 17 16 17
22 21 22 21 20 20 20 20 20 20 20 20 20 20 21 21 20 20 20 20 19 19 19 19 19 19 19 20 20 20 19 19 19 19 19 19 18 18 18 18 17 17 17
22 22 22 21 21 20 20 20 20 20 20 20 20 21 20 20 20 20 20 20 20 20 20 20 20 20 20 20 20 20 20 19 19 19 19 17 18 19 18 18 18 18 17
22 22 22 22 21 21 20 20 20 20 20 20 20 20 20 20 20 20 20 20 20 20 20 20 20 20 20 20 20 20 19 19 19 19 18 18 17 18 19 18 18 18 18
22 22 22 22 22 21 21 21 20 20 20 20 20 20 20 20 20 20 20 20 20 20 20 19 19 19 19 19 19 19 19 19 19 18 17 17 17 18 19 18 18 18 18
22 22 23 22 22 21 21 21 21 21 20 20 20 20 20 20 20 20 19 19 19 19 19 19 19 19 19 19 19 19 19 19 19 18 17 17 17 18 18 18 18 18 18
21 21 22 22 22 21 21 21 21 21 20 20 20 20 20 20 20 19 19 19 19 19 19 19 19 18 18 18 18 18 18 18 18 18 17 17 17 17 18 18 18 18 18
21 21 21 22 22 21 21 21 21 21 20 20 20 20 20 20 20 19 19 19 19 19 19 19 19 18 18 18 18 18 18 18 17 17 17 17 17 17 18 18 17 17 17
22 21 21 21 21 21 21 21 20 20 20 20 20 20 20 20 20 19 19 19 19 19 19 19 19 18 18 18 18 18 18 18 17 17 17 17 17 18 18 18 18 17 17
21 21 20 20 20 20 20 20 20 20 20 20 20 20 19 19 19 19 19 19 19 19 19 19 19 19 19 18 18 18 18 18 17 18 18 17 17 18 18 18 18 18 17
21 21 21 20 19 19 19 19 20 20 20 20 19 19 19 19 18 18 19 19 19 19 19 19 19 19 19 19 19 18 18 17 18 18 18 18 17 18 18 18 18 18 18
21 21 20 20 20 19 19 19 19 19 19 19 18 18 18 18 18 18 18 19 19 19 19 19 19 19 19 18 18 18 18 17 18 18 18 18 18 18 18 18 18 18 18
21 21 21 20 20 20 19 19 19 19 19 18 18 18 18 18 18 18 18 18 18 19 19 18 18 18 18 18 18 18 18 18 18 18 18 18 18 18 18 18 18 18 18
22 21 21 20 21 21 20 20 19 19 19 19 18 18 18 18 18 18 18 18 18 18 18 18 18 18 18 18 18 18 18 18 18 18 18 18 18 18 18 18 18 18 18
22 21 21 21 22 22 22 21 20 19 19 19 19 18 18 18 18 18 18 18 18 18 18 18 18 18 18 18 18 18 18 18 18 18 18 18 18 18 18 18 18 18 18
22 21 21 22 22 22 22 21 21 20 19 19 19 18 18 18 18 18 18 18 18 18 18 18 18 18 18 18 18 18 18 18 18 18 18 18 19 19 18 18 18 18 18
22 22 22 22 21 22 21 21 20 19 19 19 18 18 18 18 18 18 18 18 18 18 18 18 18 18 18 18 18 18 18 18 19 19 19 19 19 19 19 19 18 18 18
22 22 22 21 21 21 21 20 19 19 19 19 18 18 18 18 18 18 18 17 18 18 18 18 18 18 18 18 18 18 18 18 19 19 18 18 19 18 19 19 19 19 19
22 22 22 22 21 21 20 20 20 19 19 19 18 18 18 17 17 17 17 17 17 17 17 17 17 18 18 18 18 18 18 18 18 18 18 18 18 18 18 18 19 19 19
22 22 22 22 21 21 20 20 20 19 19 18 18 18 17 17 17 17 17 17 16 17 17 17 17 17 18 18 17 18 18 18 18 18 18 18 18 18 18 18 18 18 19
22 22 22 22 22 21 20 20 20 19 19 18 18 17 17 16 16 16 16 16 16 16 16 16 17 17 17 17 17 17 17 17 17 18 18 18 18 18 18 18 18 18 18
21 21 22 22 21 21 21 20 20 19 19 18 18 17 16 16 16 16 15 16 16 16 16 16 16 16 16 17 17 17 17 18 18 18 18 18 18 18 18 18 18 18 18
21 21 21 21 21 21 21 20 20 19 18 18 18 17 16 16 16 16 16 15 15 15 15 15 15 15 16 16 16 16 17 18 19 19 18 18 18 18 18 18 18 17 17
20 20 20 21 21 21 20 20 19 19 19 18 18 17 16 16 15 15 15 15 15 15 15 15 15 15 15 16 16 16 16 17 17 18 18 18 17 17 17 17 17 17 17
19 19 20 20 20 20 20 19 19 19 18 18 17 17 16 16 15 15 15 15 15 15 14 15 15 15 14 15 15 16 16 16 16 16 18 18 17 17 17 17 17 17 16
19 19 19 19 19 19 19 19 19 18 18 18 17 17 16 16 15 14 14 14 15 14 14 14 14 14 14 14 14 15 15 16 16 16 17 17 17 17 16 16 16 16 16
Wind_Speed
14 18 22 18 16 15 15 16 17 18 17 17 16 15 14 13 12 10 9 9 8 8 8 8 8 8 8 8 9 10 10 9 9 9 9 9 8 7 7 7 7 9 11
17 20 22 19 17 16 16 16 17 17 17 16 15 14 13 12 11 10 9 9 8 7 7 7 7 7 7 7 8 9 9 8 8 8 9 9 7 6 6 4 2 8 9
18 21 22 19 17 16 16 16 16 17 16 15 14 13 12 11 10 10 9 8 7 7 6 6 5 5 6 6 7 7 7 7 7 7 7 8 9 7 5 4 2 7 8
18 20 20 20 18 17 16 16 16 16 15 14 13 12 11 11 10 9 8 7 6 6 6 5 5 5 5 5 5 6 6 6 6 7 8 5 7 10 7 6 5 6 7
17 18 19 21 18 17 16 15 15 14 14 13 12 11 11 10 9 8 7 6 6 5 5 5 4 4 4 4 4 5 5 5 5 9 5 4 4 10 7 8 8 8 8
17 17 20 20 18 17 16 15 14 14 13 13 12 11 10 10 9 8 7 6 6 5 5 5 5 5 5 5 5 5 6 6 8 10 6 7 6 9 8 9 10 11 11
16 16 20 20 18 17 16 15 14 13 13 12 12 11 10 10 9 8 8 7 7 6 6 6 6 6 7 7 7 7 8 8 11 10 8 9 7 9 8 10 12 13 14
16 15 18 19 17 17 16 15 14 14 13 13 12 12 11 10 10 9 9 8 8 8 8 8 8 8 8 8 9 9 10 11 13 12 11 11 7 7 9 12 13 15 16
14 14 15 18 17 15 14 14 13 13 13 13 12 12 12 11 11 10 10 10 10 10 10 10 10 10 10 10 11 11 11 12 14 12 11 10 9 11 12 14 15 15 17
13 13 13 15 15 15 15 14 13 12 12 12 12 12 12 12 12 13 13 14 12 12 12 12 12 12 12 12 13 13 13 13 16 15 11 10 12 12 14 16 16 17 18
12 12 12 13 12 12 12 14 14 13 14 13 13 14 13 13 14 13 16 12 12 13 13 13 14 14 14 15 17 16 14 14 14 12 10 6 12 13 16 17 18 18 19
14 13 12 11 11 11 10 10 11 12 13 13 12 12 12 12 10 11 4 9 13 14 15 16 16 15 16 14 15 18 13 14 13 11 11 11 13 15 17 18 19 19 20
14 13 13 11 10 10 8 8 8 8 9 10 12 11 10 10 10 10 9 9 12 14 14 14 16 14 13 11 9 10 11 11 10 10 9 12 15 17 18 19 19 19 20
13 13 12 12 10 10 9 8 7 7 7 8 9 10 10 8 8 9 8 10 10 9 9 10 10 12 12 13 12 12 12 10 10 10 9 10 14 17 18 19 19 19 20
12 12 12 11 10 9 8 7 7 8 8 9 8 9 10 9 9 9 8 9 11 11 10 10 10 10 11 12 13 13 12 12 12 12 10 11 14 17 18 18 18 18 19
12 12 11 11 11 9 8 7 7 8 8 9 9 10 11 11 9 9 10 10 11 12 11 10 11 11 11 11 12 12 12 13 12 12 13 11 14 17 18 18 18 18 19
11 11 10 10 10 10 9 9 8 8 8 8 8 10 11 12 11 10 11 11 11 12 12 11 12 11 11 11 12 13 13 13 12 12 13 12 12 14 17 18 19 19 19
10 10 10 8 9 9 8 7 6 7 7 7 8 9 10 11 12 10 11 11 11 12 10 11 11 11 11 11 12 12 12 11 13 13 14 13 12 13 14 17 19 19 20
9 9 9 9 8 6 5 5 5 5 6 6 7 7 8 10 10 10 10 11 12 11 11 12 11 11 12 13 13 12 13 13 14 15 16 15 14 13 14 14 17 20 21
9 9 8 8 7 5 4 4 4 4 4 4 5 5 7 8 9 10 10 11 11 11 11 11 13 12 12 12 13 14 13 14 14 14 15 15 14 15 16 16 15 16 21
10 9 8 7 7 6 4 4 3 3 2 3 4 4 6 8 9 8 10 10 10 11 12 13 12 14 13 11 11 12 14 16 16 14 14 15 16 15 15 15 15 15 14
8 8 8 8 8 7 5 4 2 2 3 3 4 4 6 7 8 9 9 10 11 10 12 13 13 12 12 10 9 9 9 11 14 16 15 15 16 14 15 15 15 15 15
6 6 6 6 7 7 6 5 4 4 5 4 4 4 5 7 8 8 10 11 11 12 12 12 12 14 13 12 11 10 9 10 9 10 14 14 14 13 14 13 15 15 16
1 2 3 5 6 6 7 7 6 5 5 5 5 5 6 7 8 8 9 10 11 11 12 13 13 12 13 13 12 12 14 13 10 9 9 11 13 13 13 12 13 13 14
5 5 4 5 6 6 7 7 7 7 6 6 5 6 7 7 7 8 8 9 10 11 12 12 13 13 13 14 13 12 14 13 15 13 12 10 9 10 10 10 10 10 10
7 7 6 6 6 7 7 8 9 9 8 8 8 8 8 7 7 8 8 9 10 11 11 12 13 15 14 15 14 13 13 12 12 13 14 12 10 8 7 5 6 6 5
Wind_Direction
155 146 149 158 154 146 140 137 138 140 141 141 140 141 142 141 139 136 131 125 120 114 111 111 114 112 108 106 109 116 118 118 120 119 117 114 112 114 119 129 166 134 123
148 146 150 158 156 151 145 141 140 141 144 144 144 146 146 145 144 142 139 136 131 125 119 117 119 119 117 115 117 121 125 128 132 131 135 135 126 123 130 148 294 110 139
146 146 155 160 159 155 150 147 145 145 147 148 149 150 149 149 148 148 147 145 142 137 132 129 127 128 127 127 129 133 136 141 146 150 183 161 138 145 150 158 128 130 155
148 150 158 159 162 159 156 154 152 152 153 154 155 156 157 157 157 157 156 156 155 152 150 150 150 148 146 145 147 149 152 158 166 190 208 157 152 145 173 177 178 175 176
147 151 153 161 165 163 161 160 159 159 159 161 163 164 165 166 166 167 168 170 173 174 174 177 178 176 174 173 172 173 176 183 196 232 220 199 175 141 181 193 194 197 196
151 156 154 165 167 167 167 167 167 167 167 169 171 173 174 175 177 180 183 189 196 199 203 205 206 204 201 202 203 204 208 212 227 230 221 228 214 156 196 210 205 205 207
156 157 155 167 170 172 172 173 175 176 177 179 181 184 186 189 193 198 202 208 216 223 226 227 225 224 220 219 221 222 224 228 247 252 237 237 230 158 210 231 224 214 211
158 160 154 167 173 176 178 180 182 184 187 189 192 195 198 202 207 213 218 222 226 232 236 240 239 237 234 233 232 233 233 242 246 247 242 243 210 182 228 244 245 232 220
162 162 160 171 177 181 185 189 192 195 198 201 204 206 209 214 219 224 228 231 234 235 236 238 241 243 242 240 239 240 240 241 260 259 248 241 189 203 232 243 247 246 236
168 171 170 177 178 185 189 193 200 206 210 213 216 219 221 226 229 229 233 227 233 240 241 241 242 244 244 243 242 241 242 244 248 253 246 231 184 208 232 241 245 248 245
176 180 182 182 181 192 198 189 199 210 215 220 223 222 229 239 239 226 231 221 230 241 245 246 246 247 248 242 236 237 237 245 249 253 255 208 184 216 236 241 243 245 247
183 187 188 194 185 199 205 197 211 217 214 222 234 230 231 242 255 263 241 219 240 246 249 246 247 248 246 248 230 218 238 242 254 253 244 199 207 228 239 243 244 244 245
185 191 192 196 195 205 211 219 220 228 229 230 237 245 251 263 260 258 259 234 234 238 246 238 235 242 243 244 255 237 245 258 257 261 254 198 215 232 241 243 244 243 243
188 192 196 193 201 211 222 226 232 239 240 248 244 245 253 253 261 265 264 268 265 254 250 258 254 251 252 253 250 252 252 249 255 261 263 223 229 238 245 246 246 244 242
189 194 196 197 201 207 217 238 243 251 256 252 259 252 254 257 260 263 265 263 266 266 258 250 256 260 257 254 251 249 250 252 252 256 259 234 235 242 248 250 249 247 243
191 193 194 200 203 209 215 226 243 254 253 264 259 256 256 262 265 267 265 264 264 265 265 265 261 257 254 252 251 250 250 252 251 252 257 253 234 239 247 251 253 252 248
191 192 195 201 204 210 223 231 241 251 257 261 266 265 262 264 268 268 270 269 266 267 265 262 261 258 253 250 249 248 248 247 249 247 250 255 255 240 238 243 248 251 251
188 189 194 201 202 208 222 239 257 267 273 273 276 276 275 277 277 274 273 273 273 270 266 261 256 255 252 251 250 250 247 245 245 246 249 247 251 257 247 236 238 244 250
185 186 189 196 198 202 211 230 254 267 273 281 285 289 293 290 290 285 283 282 280 275 269 266 260 256 255 252 252 248 247 245 245 247 249 247 246 248 257 252 238 238 245
173 179 183 184 187 186 194 212 243 256 268 278 291 300 300 298 298 297 288 287 286 279 272 267 266 262 259 258 258 257 251 247 245 245 246 245 245 245 249 256 257 246 236
170 172 175 175 172 180 188 205 214 229 259 286 294 308 303 303 305 299 295 298 289 284 283 279 273 268 262 258 258 259 254 248 245 245 242 244 244 243 243 248 254 259 255
162 168 170 175 175 185 181 194 216 254 266 288 298 300 297 304 304 298 300 295 292 290 282 278 275 273 271 257 249 257 261 252 240 239 239 238 242 243 244 245 248 250 255
164 175 184 182 186 193 190 199 204 222 246 256 282 287 299 302 299 299 296 294 296 290 285 285 281 271 270 266 248 246 255 256 262 243 232 236 239 240 244 247 247 248 249
263 222 213 210 212 208 208 219 228 250 273 295 298 302 300 291 294 297 293 292 290 289 288 281 277 275 269 266 258 245 249 265 266 266 244 234 234 237 242 246 249 248 250
318 296 267 248 239 232 233 233 239 252 267 279 289 288 290 294 292 293 293 293 289 285 285 284 282 274 269 265 262 256 251 251 250 255 261 251 237 234 235 238 246 252 254
345 323 298 276 266 259 253 253 252 262 270 280 283 290 291 297 297 298 297 293 289 287 286 281 277 271 266 266 263 259 253 250 245 244 248 250 250 245 232 238 248 251 251
Height
1521 1521 1522 1525 1528 1531 1534 1537 1539 1541 1543 1544 1546 1547 1548 1549 1550 1551 1551 1552 1553 1554 1555 1555 1556 1556 1557 1557 1557 1557 1557 1557 1557 1558 1558 1558 1558 1559 1559 1559 1560 1561 1560
1520 1521 1523 1526 1529 1532 1535 1538 1540 1543 1544 1546 1547 1549 1550 1551 1552 1553 1553 1554 1555 1556 1556 1557 1557 1558 1558 1558 1559 1559 1559 1559 1559 1559 1560 1560 1560 1560 1560 1561 1561 1563 1562
1520 1521 1524 1527 1530 1533 1536 1539 1541 1544 1546 1547 1549 1550 1551 1552 1553 1554 1555 1556 1557 1557 1558 1558 1559 1559 1559 1560 1560 1560 1560 1561 1561 1561 1561 1564 1562 1562 1562 1562 1562 1563 1563
1521 1523 1525 1528 1531 1534 1537 1540 1542 1545 1546 1548 1550 1551 1552 1553 1554 1555 1556 1557 1557 1558 1559 1559 1559 1560 1560 1560 1561 1561 1561 1562 1562 1562 1564 1567 1565 1563 1563 1563 1563 1564 1564
1522 1525 1526 1529 1532 1535 1538 1541 1543 1545 1547 1549 1550 1551 1553 1553 1554 1555 1556 1557 1557 1558 1558 1559 1559 1560 1560 1560 1561 1561 1561 1562 1562 1563 1566 1566 1566 1564 1564 1564 1564 1564 1565
1523 1526 1528 1530 1533 1536 1539 1541 1544 1546 1548 1549 1551 1552 1553 1554 1554 1555 1556 1556 1557 1557 1557 1558 1558 1559 1559 1559 1560 1560 1561 1561 1562 1564 1566 1565 1566 1564 1563 1564 1564 1564 1565
1526 1528 1529 1531 1534 1537 1539 1542 1544 1546 1548 1549 1551 1552 1553 1554 1554 1555 1555 1555 1555 1556 1556 1556 1557 1557 1557 1558 1558 1559 1559 1559 1560 1564 1564 1564 1564 1562 1562 1563 1563 1563 1564
1528 1530 1530 1532 1535 1537 1540 1542 1544 1546 1548 1549 1550 1551 1552 1553 1553 1554 1554 1554 1554 1554 1554 1555 1555 1555 1556 1556 1556 1557 1557 1557 1559 1561 1561 1562 1561 1560 1560 1561 1562 1562 1562
1530 1532 1532 1533 1535 1538 1540 1542 1544 1546 1547 1548 1550 1551 1551 1552 1552 1552 1552 1552 1552 1552 1552 1552 1553 1553 1553 1554 1554 1555 1555 1555 1555 1558 1559 1558 1557 1557 1557 1558 1559 1560 1560
1530 1532 1533 1535 1537 1538 1540 1542 1544 1545 1547 1548 1549 1549 1550 1550 1551 1550 1551 1550 1550 1550 1550 1550 1550 1551 1551 1551 1552 1552 1552 1552 1553 1556 1555 1555 1553 1553 1554 1554 1555 1556 1557
1529 1532 1534 1537 1537 1539 1541 1542 1543 1544 1545 1546 1547 1548 1548 1549 1550 1550 1549 1548 1548 1548 1548 1548 1548 1548 1548 1548 1549 1549 1549 1550 1552 1552 1552 1551 1550 1550 1550 1550 1551 1552 1553
1527 1530 1533 1536 1537 1539 1541 1543 1543 1544 1545 1545 1547 1547 1547 1547 1548 1549 1547 1546 1545 1545 1545 1545 1545 1544 1544 1546 1546 1545 1546 1547 1548 1548 1548 1546 1546 1546 1546 1546 1547 1548 1549
1526 1529 1532 1533 1535 1537 1539 1541 1542 1544 1544 1544 1545 1544 1545 1545 1545 1545 1545 1544 1542 1542 1542 1542 1541 1541 1542 1543 1543 1543 1543 1544 1544 1544 1544 1542 1542 1542 1542 1542 1543 1543 1544
1525 1528 1530 1532 1533 1535 1537 1539 1540 1541 1542 1543 1543 1541 1542 1541 1541 1541 1540 1541 1540 1539 1538 1538 1538 1539 1538 1538 1538 1538 1539 1538 1538 1539 1538 1537 1538 1538 1538 1538 1539 1539 1540
1524 1526 1528 1530 1531 1533 1534 1536 1538 1539 1540 1540 1539 1539 1538 1537 1537 1537 1536 1535 1535 1535 1534 1533 1533 1533 1533 1533 1533 1533 1533 1533 1533 1533 1533 1532 1533 1533 1534 1534 1534 1535 1536
1522 1525 1527 1528 1530 1532 1533 1534 1535 1536 1536 1536 1536 1535 1534 1533 1533 1532 1531 1530 1529 1529 1529 1528 1527 1527 1527 1527 1527 1527 1527 1528 1527 1527 1527 1527 1527 1528 1528 1529 1529 1530 1531
1521 1523 1525 1526 1528 1530 1531 1532 1533 1534 1533 1533 1532 1531 1530 1529 1528 1527 1526 1525 1524 1523 1523 1522 1521 1521 1521 1521 1521 1521 1521 1521 1521 1521 1521 1521 1522 1522 1522 1523 1524 1525 1526
1520 1521 1523 1525 1527 1528 1529 1530 1531 1531 1531 1530 1529 1528 1527 1525 1524 1523 1521 1520 1518 1517 1517 1516 1515 1515 1515 1515 1514 1514 1514 1514 1514 1514 1514 1514 1515 1516 1517 1517 1518 1519 1520
1518 1520 1521 1523 1525 1526 1527 1528 1528 1528 1528 1527 1526 1525 1524 1522 1520 1518 1517 1515 1513 1512 1510 1510 1509 1508 1508 1508 1507 1507 1507 1506 1506 1506 1507 1507 1508 1509 1510 1511 1511 1512 1513
1516 1518 1519 1521 1523 1524 1525 1526 1526 1526 1526 1525 1524 1522 1520 1518 1516 1514 1513 1510 1509 1507 1505 1503 1502 1502 1501 1501 1501 1500 1500 1499 1499 1499 1498 1500 1500 1501 1503 1504 1505 1505 1505
1514 1515 1518 1520 1521 1522 1523 1524 1525 1525 1524 1523 1521 1519 1516 1514 1512 1510 1508 1506 1504 1503 1501 1499 1498 1496 1495 1495 1494 1493 1492 1492 1491 1490 1491 1491 1492 1494 1495 1496 1497 1498 1498
1513 1514 1516 1518 1519 1520 1521 1522 1522 1522 1521 1520 1518 1515 1513 1510 1508 1507 1504 1502 1500 1497 1495 1494 1492 1491 1490 1490 1489 1488 1486 1486 1483 1483 1483 1483 1484 1486 1487 1488 1489 1490 1490
1514 1515 1516 1517 1517 1518 1519 1520 1519 1518 1518 1518 1516 1513 1510 1507 1504 1502 1499 1497 1495 1493 1491 1489 1487 1486 1485 1484 1483 1483 1481 1478 1477 1477 1476 1476 1477 1478 1479 1480 1482 1483 1483
1515 1515 1515 1515 1516 1516 1516 1517 1517 1517 1516 1514 1512 1510 1506 1503 1500 1497 1495 1492 1490 1488 1486 1483 1483 1481 1479 1478 1477 1476 1475 1474 1474 1471 1471 1471 1471 1471 1472 1473 1475 1476 1476
1513 1514 1514 1513 1513 1513 1513 1513 1513 1513 1512 1511 1508 1505 1502 1500 1497 1494 1491 1488 1485 1483 1480 1478 1476 1474 1473 1472 1471 1470 1469 1468 1468 1467 1466 1466 1466 1466 1466 1466 1467 1468 1469
1511 1511 1511 1511 1510 1510 1509 1509 1509 1508 1507 1506 1504 1502 1499 1497 1494 1491 1487 1484 1481 1478 1475 1472 1470 1468 1466 1465 1464 1463 1463 1462 1461 1461 1460 1460 1460 1461 1460 1461 1461 1462 1462